• In Hungary
  • List of Countries
  • For 7 days
  • Water Temperature
  • Satellite Maps
  • Weather Map
  • News
  • Weather Widgets
  • user-avatar
    Login

    Hourly Weather Dmitrievka

    Today, 23 May, Wednesday

    Time Temperature Precipitation Wind Pressure Humidity
    00:00 +17°C° 0.3 mm 4 mps 752 mmHg 77%
    01:00 +16°C° 0.4 mm 3 mps 752 mmHg 79%
    02:00 +16°C° 0.4 mm 3 mps 752 mmHg 80%
    03:00 +14°C° 0.4 mm 3 mps 752 mmHg 82%
    04:00 +16°C° 0.1 mm 2 mps 752 mmHg 81%
    05:00 +16°C° 0.1 mm 2 mps 752 mmHg 80%
    06:00 +16°C° 0.1 mm 2 mps 752 mmHg 78%
    07:00 +17°C° 0 mm 2 mps 752 mmHg 74%
    08:00 +18°C° 0 mm 3 mps 752 mmHg 70%
    09:00 +19°C° 0 mm 3 mps 752 mmHg 66%
    10:00 +21°C° 0 mm 3 mps 752 mmHg 63%
    11:00 +22°C° 0 mm 3 mps 752 mmHg 59%
    12:00 +25°C° 0 mm 3 mps 752 mmHg 56%
    13:00 +25°C° 0 mm 3 mps 751 mmHg 57%
    14:00 +26°C° 0 mm 2 mps 751 mmHg 57%
    15:00 +26°C° 0 mm 2 mps 751 mmHg 58%
    16:00 +26°C° 0 mm 1 mps 751 mmHg 61%
    17:00 +25°C° 0 mm 1 mps 750 mmHg 65%
    18:00 +25°C° 0 mm 1 mps 750 mmHg 68%
    19:00 +24°C° 0 mm 1 mps 750 mmHg 70%
    20:00 +21°C° 0 mm 2 mps 750 mmHg 72%
    21:00 +20°C° 0 mm 2 mps 750 mmHg 74%
    22:00 +20°C° 0.4 mm 3 mps 749 mmHg 77%
    23:00 +19°C° 0.4 mm 3 mps 749 mmHg 81%

    Tomorrow, 24 May, Thursday

    Time Temperature Precipitation Wind Pressure Humidity
    00:00 +19°C° 0.4 mm 4 mps 749 mmHg 84%
    01:00 +18°C° 0 mm 4 mps 748 mmHg 85%
    02:00 +18°C° 0 mm 3 mps 748 mmHg 86%
    03:00 +18°C° 0 mm 3 mps 748 mmHg 87%
    04:00 +18°C° 0 mm 4 mps 748 mmHg 86%
    05:00 +18°C° 0 mm 4 mps 747 mmHg 85%
    06:00 +18°C° 0 mm 4 mps 747 mmHg 84%
    07:00 +19°C° 0 mm 4 mps 747 mmHg 80%
    08:00 +20°C° 0 mm 4 mps 747 mmHg 76%
    09:00 +21°C° 0 mm 4 mps 747 mmHg 73%
    10:00 +22°C° 0 mm 4 mps 747 mmHg 71%
    11:00 +23°C° 0 mm 4 mps 746 mmHg 69%
    12:00 +25°C° 0 mm 4 mps 746 mmHg 68%
    13:00 +25°C° 0 mm 4 mps 746 mmHg 67%
    14:00 +26°C° 0 mm 4 mps 746 mmHg 66%
    15:00 +26°C° 0 mm 4 mps 745 mmHg 66%
    16:00 +26°C° 0 mm 4 mps 745 mmHg 69%
    17:00 +25°C° 0 mm 4 mps 745 mmHg 72%
    18:00 +25°C° 0 mm 4 mps 744 mmHg 75%
    19:00 +22°C° 0.1 mm 4 mps 744 mmHg 78%
    20:00 +21°C° 0.1 mm 4 mps 744 mmHg 81%
    21:00 +20°C° 0.1 mm 5 mps 744 mmHg 84%
    22:00 +20°C° 0.1 mm 5 mps 744 mmHg 84%
    23:00 +19°C° 0.1 mm 6 mps 744 mmHg 83%

    Day after tomorrow, 25 May, Friday

    Time Temperature Precipitation Wind Pressure Humidity
    00:00 +19°C° 0.1 mm 6 mps 744 mmHg 82%
    01:00 +17°C° 0 mm 6 mps 743 mmHg 82%
    02:00 +17°C° 0 mm 6 mps 743 mmHg 83%
    03:00 +17°C° 0 mm 6 mps 743 mmHg 83%
    04:00 +17°C° 0 mm 6 mps 743 mmHg 84%
    05:00 +16°C° 0 mm 6 mps 744 mmHg 84%
    06:00 +16°C° 0 mm 7 mps 744 mmHg 85%
    07:00 +17°C° 0 mm 7 mps 745 mmHg 82%
    08:00 +18°C° 0 mm 8 mps 745 mmHg 79%
    09:00 +18°C° 0 mm 8 mps 746 mmHg 76%
    10:00 +20°C° 0 mm 8 mps 746 mmHg 72%
    11:00 +19°C° 0 mm 9 mps 747 mmHg 69%
    12:00 +19°C° 0 mm 9 mps 747 mmHg 65%
    13:00 +18°C° 0 mm 9 mps 747 mmHg 62%
    14:00 +18°C° 0 mm 9 mps 748 mmHg 59%
    15:00 +17°C° 0 mm 9 mps 748 mmHg 56%
    16:00 +16°C° 0 mm 9 mps 749 mmHg 57%
    17:00 +15°C° 0 mm 8 mps 749 mmHg 59%
    18:00 +13°C° 0 mm 8 mps 750 mmHg 61%
    19:00 +12°C° 0 mm 7 mps 750 mmHg 60%
    20:00 +10°C° 0 mm 7 mps 751 mmHg 60%
    21:00 +9°C° 0 mm 6 mps 751 mmHg 60%
    22:00 +8°C° 0 mm 6 mps 752 mmHg 60%
    23:00 +8°C° 0 mm 5 mps 752 mmHg 60%

    26 May, Saturday

    Time Temperature Precipitation Wind Pressure Humidity
    00:00 +7°C° 0 mm 4 mps 753 mmHg 59%
    01:00 +6°C° 0 mm 4 mps 753 mmHg 62%
    02:00 +6°C° 0 mm 4 mps 754 mmHg 65%
    03:00 +5°C° 0 mm 4 mps 754 mmHg 68%
    04:00 +6°C° 0 mm 4 mps 754 mmHg 67%
    05:00 +6°C° 0 mm 5 mps 755 mmHg 66%
    06:00 +7°C° 0 mm 5 mps 755 mmHg 65%
    07:00 +8°C° 0 mm 5 mps 755 mmHg 60%
    08:00 +9°C° 0 mm 6 mps 756 mmHg 54%
    09:00 +11°C° 0 mm 6 mps 756 mmHg 49%
    10:00 +13°C° 0 mm 6 mps 756 mmHg 48%
    11:00 +13°C° 0 mm 6 mps 757 mmHg 47%
    12:00 +14°C° 0 mm 6 mps 757 mmHg 47%
    13:00 +15°C° 0 mm 6 mps 757 mmHg 46%
    14:00 +15°C° 0 mm 6 mps 757 mmHg 46%
    15:00 +16°C° 0 mm 5 mps 757 mmHg 46%
    16:00 +15°C° 0 mm 5 mps 757 mmHg 50%
    17:00 +15°C° 0 mm 4 mps 757 mmHg 54%
    18:00 +16°C° 0 mm 3 mps 757 mmHg 58%
    19:00 +14°C° 0 mm 2 mps 757 mmHg 62%
    20:00 +12°C° 0 mm 2 mps 757 mmHg 65%
    21:00 +10°C° 0 mm 1 mps 757 mmHg 68%
    22:00 +10°C° 0 mm 1 mps 757 mmHg 69%
    23:00 +10°C° 0 mm 1 mps 757 mmHg 69%

    27 May, Sunday

    Time Temperature Precipitation Wind Pressure Humidity
    00:00 +9°C° 0 mm 1 mps 757 mmHg 69%
    01:00 +9°C° 0 mm 1 mps 757 mmHg 70%
    02:00 +8°C° 0 mm 2 mps 757 mmHg 70%
    03:00 +7°C° 0 mm 2 mps 757 mmHg 71%
    04:00 +8°C° 0 mm 3 mps 757 mmHg 72%
    05:00 +9°C° 0 mm 3 mps 757 mmHg 72%
    06:00 +10°C° 0 mm 3 mps 757 mmHg 72%
    07:00 +12°C° 0 mm 4 mps 757 mmHg 70%
    08:00 +14°C° 0 mm 4 mps 757 mmHg 68%
    09:00 +17°C° 0 mm 4 mps 756 mmHg 65%
    10:00 +17°C° 0 mm 5 mps 756 mmHg 63%
    11:00 +20°C° 0 mm 5 mps 756 mmHg 60%
    12:00 +21°C° 0 mm 5 mps 755 mmHg 58%
    13:00 +21°C° 0 mm 5 mps 755 mmHg 58%
    14:00 +22°C° 0 mm 6 mps 754 mmHg 57%
    15:00 +22°C° 0 mm 6 mps 754 mmHg 57%
    16:00 +22°C° 0 mm 5 mps 753 mmHg 61%
    17:00 +21°C° 0 mm 5 mps 753 mmHg 65%
    18:00 +21°C° 0 mm 4 mps 752 mmHg 70%
    19:00 +19°C° 0 mm 4 mps 752 mmHg 74%
    20:00 +18°C° 0 mm 4 mps 751 mmHg 79%
    21:00 +15°C° 0 mm 4 mps 751 mmHg 83%
    22:00 +15°C° 0 mm 4 mps 751 mmHg 84%
    23:00 +14°C° 0 mm 4 mps 751 mmHg 85%

    28 May, Monday

    Time Temperature Precipitation Wind Pressure Humidity
    00:00 +14°C° 0 mm 4 mps 750 mmHg 86%
    01:00 +13°C° 0 mm 4 mps 751 mmHg 88%
    02:00 +13°C° 0 mm 4 mps 751 mmHg 90%
    03:00 +13°C° 0 mm 4 mps 751 mmHg 92%
    04:00 +13°C° 0 mm 4 mps 751 mmHg 90%
    05:00 +13°C° 0 mm 4 mps 751 mmHg 87%
    06:00 +13°C° 0 mm 4 mps 752 mmHg 84%
    07:00 +14°C° 0 mm 5 mps 752 mmHg 75%
    08:00 +15°C° 0 mm 5 mps 752 mmHg 65%
    09:00 +16°C° 0 mm 5 mps 752 mmHg 55%
    10:00 +17°C° 0 mm 5 mps 753 mmHg 52%
    11:00 +17°C° 0 mm 5 mps 753 mmHg 50%
    12:00 +19°C° 0 mm 5 mps 753 mmHg 48%
    13:00 +19°C° 0 mm 6 mps 753 mmHg 47%
    14:00 +19°C° 0 mm 6 mps 753 mmHg 46%
    15:00 +19°C° 0 mm 6 mps 753 mmHg 45%
    16:00 +19°C° 0 mm 5 mps 753 mmHg 50%
    17:00 +17°C° 0 mm 5 mps 753 mmHg 55%
    18:00 +18°C° 0 mm 4 mps 753 mmHg 60%
    19:00 +16°C° 0 mm 3 mps 753 mmHg 63%
    20:00 +13°C° 0 mm 3 mps 753 mmHg 67%
    21:00 +11°C° 0 mm 3 mps 753 mmHg 70%
    22:00 +10°C° 0 mm 3 mps 754 mmHg 71%
    23:00 +9°C° 0 mm 2 mps 754 mmHg 72%
    Show more